KTCM

McChord Field

Airport
ICAO code
KTCM
Summary
ICAO Region
NAM
ICAO Territory
Location

Lakewood, Washington,

Coordinates
47° 8' 4" N , 122° 29' 5" W
KCC
Airport LOS
Parallel Runway Operation
Metar
KTCM 241625Z AUTO 00000KT 10SM BKN065 OVC080 12/08 A2991 RMK AO2 RAB00E16RAB17E25 SLP132 $

Description

McChord Field, formerly known as McChord Air Force Base, is a United States Air Force facility located in Pierce County, Washington, approximately 10 km southwest of Lakewood. McChord AFB was consolidated with United States Army Fort Lewis in February 2010 to become part of the Joint Base Lewis-McChord complex.

Climatology

Dry-summer subtropical ”Mediterranean" climate (Köppen climate classification Csb) - characterized by warm, dry summers and mild winters.

Runways

Designator Length Width Surface Rops
160/340 914 18 ASPH No/No
16/34 3081 46 ASP Yes/Yes

Airport map

Aerial View

SKYbrary Partners:

Safety knowledge contributed by: